Location: Street
(51.1247°N, 2.7429°W)
Time: 11:19:59
(UTC+01:00)

PCSat - Visible Passes

Search period start: 27 March 2023 00:00
Search period end: 06 April 2023 00:00
Orbit: 784 x 794 km, 67.1° (Epoch: 26 March)

Date Brightness Start Highest point End Pass type
(mag) Time Alt. Az. Time Alt. Az. Time Alt. Az.
27 Mar 11.3 01:30:52 10° NNW 01:33:21 27° NNW 01:33:21 27° NNW visible
27 Mar 12.1 21:31:37 10° NW 21:34:44 15° N 21:37:50 10° NNE visible
27 Mar 11.7 23:16:23 10° NNW 23:20:15 19° NNE 23:22:04 16° NE visible
28 Mar 11.1 00:59:35 10° NNW 01:02:44 32° N 01:02:44 32° N visible
28 Mar 12.1 02:43:13 10° NW 02:43:25 11° NW 02:43:25 11° NW visible
28 Mar 12.0 20:59:48 10° NW 21:03:04 16° N 21:06:20 10° NNE visible
28 Mar 11.8 22:45:02 10° NNW 22:48:37 17° NNE 22:51:28 12° NE visible
29 Mar 11.0 00:28:20 10° NNW 00:32:08 35° N 00:32:08 35° N visible
29 Mar 11.8 02:11:46 10° NW 02:12:48 16° NW 02:12:48 16° NW visible
29 Mar 12.0 20:27:56 10° NW 20:31:25 17° NNW 20:34:54 10° NNE visible
29 Mar 11.9 22:13:37 10° NNW 22:16:59 16° NNE 22:20:20 10° NE visible
29 Mar 10.9 23:57:04 10° NNW 00:01:33 33° NNE 00:01:33 33° NNE visible
30 Mar 11.5 01:40:23 10° NW 01:42:13 22° NW 01:42:13 22° NW visible
30 Mar 11.9 21:42:09 10° NNW 21:45:19 15° N 21:48:29 10° NE visible
30 Mar 11.0 23:25:49 10° NNW 23:30:31 28° NNE 23:30:58 28° NE visible
31 Mar 11.2 01:09:02 10° NW 01:11:38 29° NW 01:11:38 29° NW visible
31 Mar 11.9 21:10:36 10° NNW 21:13:39 15° N 21:16:43 10° NE visible
31 Mar 11.2 22:54:33 10° NNW 22:58:58 25° NNE 23:00:24 22° NE visible
01 Apr 10.8 00:37:43 10° NW 00:41:05 39° NNW 00:41:05 39° NNW visible
01 Apr 11.9 20:38:56 10° NW 20:41:58 15° N 20:45:01 10° NNE visible
01 Apr 11.4 22:23:16 10° NNW 22:27:25 22° NNE 22:29:50 16° ENE visible
02 Apr 10.4 00:06:26 10° NNW 00:10:31 47° N 00:10:31 47° N visible
02 Apr 11.9 01:50:19 10° NW 01:51:12 14° WNW 01:51:12 14° WNW visible
02 Apr 11.6 21:51:56 10° NNW 21:55:49 19° NNE 21:59:19 11° ENE visible
02 Apr 10.2 23:35:09 10° NNW 23:39:59 49° NNE 23:39:59 49° NNE visible
03 Apr 11.5 01:18:46 10° NW 01:20:40 20° WNW 01:20:40 20° WNW visible
03 Apr 11.7 21:20:36 10° NNW 21:24:11 17° NNE 21:27:47 10° ENE visible
03 Apr 10.3 23:03:53 10° NNW 23:09:02 41° NE 23:09:28 40° NE visible
04 Apr 11.1 00:47:19 10° NW 00:50:09 29° WNW 00:50:09 29° WNW visible
04 Apr 11.8 20:49:11 10° NNW 20:52:32 16° NNE 20:55:53 10° NE visible
04 Apr 10.7 22:32:37 10° NNW 22:37:34 34° NE 22:38:58 29° ENE visible
05 Apr 10.5 00:15:56 10° NW 00:19:39 42° WNW 00:19:39 42° WNW visible
05 Apr 11.8 20:17:42 10° NNW 20:20:52 15° N 20:24:02 10° NE visible
05 Apr 10.9 22:01:22 10° NNW 22:06:04 29° NNE 22:08:29 21° ENE visible
05 Apr 9.9 23:44:34 10° NW 23:49:10 63° NW 23:49:10 63° NW visible
